Skip Page Navigation
NASA JPL Caltech
NASA Logo - Jet Propulsion Laboratory + View the NASA Portal
+ Near-Earth Object (NEO) Program
Search JPL
JPL Home Earth Solar System Stars & Galaxies Technology
JPL Solar System Dynamics
BODIES ORBITS EPHEMERIDES TOOLS PHYSICAL DATA DISCOVERY FAQ SITE MAP
JPL Small-Body Database Browser
Search: [ help ]  
52271 Lecorbusier (1988 RP3)
Classification: Main-belt Asteroid          SPK-ID: 2052271
Ephemeris | Orbit Diagram | Orbital Elements | Physical Parameters | Discovery Circumstances ]

[ show orbit diagram ]
Orbital Elements at Epoch 2456800.5 (2014-May-23.0) TDB
Reference: JPL 10 (heliocentric ecliptic J2000)
 Element Value Uncertainty (1-sigma)   Units 
e .1807691862475666 1.7035e-07  
a 2.586634274408399 3.223e-08 AU
q 2.119050501503528 4.5885e-07 AU
i 13.23042102995364 1.2858e-05 deg
node 357.7496222261686 2.6495e-05 deg
peri 36.37710772621672 3.6963e-05 deg
M 38.69622146124797 2.3233e-05 deg
tp 2456637.169599165368
(2013-Dec-10.66959917)
9.7025e-05 JED
period 1519.500924899118
4.16
2.84e-05
7.775e-08
d
yr
n .2369198952767343 4.4281e-09 deg/d
Q 3.054218047313271 3.8056e-08 AU
  Orbit Determination Parameters
   # obs. used (total)      665  
   data-arc span      9317 days (25.51 yr)  
   first obs. used      1988-09-08  
   last obs. used      2014-03-13  
   planetary ephem.      DE431  
   SB-pert. ephem.      SB431-BIG16  
   condition code      0  
   fit RMS      .52094  
   data source      ORB  
   producer      Otto Matic  
   solution date      2014-Jun-10 08:17:59  

Additional Information
 Earth MOID = 1.13622 AU 
 T_jup = 3.362 
[ show covariance matrix ]

Ephemeris | Orbit Diagram | Orbital Elements | Physical Parameters | Discovery Circumstances ]

Physical Parameter Table
Parameter Symbol Value Units Sigma Reference Notes
absolute magnitude H 13.5 mag n/a MPO270398  

52271 Lecorbusier           Discovered 1988 Sept. 8 by F. Börngen at Tautenburg.
Swiss-French Le Corbusier (1887-1965) was one of the most influential architects and city planners of the modern age. In his numerous writings he presented his new ideas and conceptions of form.
NOTE: some special characters may not display properly (any characters within {} are an attempt to place the proper accent above a character)
Reference: 20030501/MPCPages.arcLast Updated: 2003-10-02

Alternate Designations
 1988 RP3 = 1999 GH53 
Ephemeris | Orbit Diagram | Orbital Elements | Physical Parameters | Discovery Circumstances ]
ABOUT SSD CREDITS/AWARDS PRIVACY/COPYRIGHT GLOSSARY LINKS
FirstGov 2014-Jul-26 11:10 UT
(server date/time)  
NASA Home Page
Site Manager:   Donald K. Yeomans
Webmaster  Alan B. Chamberlin